Date,TemperatureHighF,TemperatureAvgF,TemperatureLowF,DewpointHighF,DewpointAvgF,DewpointLowF,HumidityHigh,HumidityAvg,HumidityLow,PressureMaxIn,PressureMinIn,WindSpeedMaxMPH,WindSpeedAvgMPH,GustSpeedMaxMPH,PrecipitationSumIn
2013-8-1,81,69,61,69,64,58,99,83,55,29.92,29.85,6,1,0,0.07
2013-8-2,75,66,55,66,61,55,99,86,61,29.99,29.89,4,1,0,0.83
2013-8-3,81,70,57,67,62,55,99,78,45,30.01,29.91,4,1,0,0.00
2013-8-4,72,64,55,60,58,54,99,83,58,30.14,30.00,5,1,0,1.33
2013-8-5,77,64,54,62,57,52,99,81,52,30.14,30.01,3,0,0,0.25
2013-8-6,81,68,57,67,62,57,99,82,57,30.02,29.94,4,0,0,0.71
2013-8-7,79,69,61,74,67,59,99,92,77,29.98,29.87,3,0,0,0.75
2013-8-8,86,74,68,76,70,-32,99,90,71,29.97,29.92,3,1,0,0.08
2013-8-9,81,70,59,68,62,52,99,79,48,30.02,29.92,5,1,0,0.05
2013-8-10,81,67,57,68,60,57,99,80,59,30.12,30.02,3,1,0,0.00
2013-8-11,82,70,59,65,61,56,98,75,53,30.14,30.04,5,1,0,0.36
2013-8-12,82,70,59,71,65,59,99,84,61,30.08,29.84,5,0,0,0.00
2013-8-13,72,66,52,68,60,48,99,82,58,30.00,29.80,6,2,0,0.36
2013-8-14,70,59,52,57,52,47,96,77,55,30.16,30.00,7,1,0,0.00
2013-8-15,73,59,46,59,52,46,99,79,48,30.20,30.12,4,1,0,0.34
2013-8-16,77,62,50,60,55,50,99,79,47,30.20,30.14,3,0,0,0.34
2013-8-17,81,66,50,64,57,50,99,77,47,30.25,30.18,4,1,0,0.00
2013-8-18,79,71,63,67,65,62,98,81,63,30.16,30.11,3,0,0,0.34
2013-8-19,81,68,59,68,62,59,99,82,50,30.15,30.07,5,1,0,0.00
2013-8-20,86,70,59,68,62,58,99,81,47,30.18,30.10,4,0,0,0.00
2013-8-21,90,72,59,71,64,59,99,80,45,30.19,30.05,4,0,0,0.00
2013-8-22,84,73,64,74,69,64,99,87,67,30.09,29.99,6,1,0,2.03
2013-8-23,84,72,54,70,62,51,99,76,43,30.20,30.02,7,1,0,0.00
2013-8-24,82,62,52,64,55,51,99,81,44,30.32,30.20,5,1,0,0.00
2013-8-25,86,72,55,67,61,55,99,73,48,30.34,30.21,6,1,0,0.00
2013-8-26,88,75,64,70,65,59,88,72,56,30.23,30.01,6,1,0,0.00
2013-8-27,81,75,70,76,72,68,99,91,78,30.05,29.90,5,1,0,1.43
2013-8-28,79,73,68,76,72,67,99,95,85,29.98,29.82,6,1,0,1.36
2013-8-29,88,75,66,76,70,66,99,86,58,30.07,29.97,5,1,0,0.00
2013-8-30,88,74,63,73,68,62,99,83,59,30.03,29.81,6,1,0,0.00
2013-8-31,86,75,68,74,70,67,99,87,64,29.84,29.72,5,1,0,0.01